Weather Roundup
Issued by NWS Springfield, MO

Home | Current Version | Previous Version | Text Only | Print | Product List | Glossary On
Versions: 1 2 3 4 5 6 7 8 9 10 11 12 13 14 15 16 17 18 19 20 21 22 23 24 25 26 27 28 29 30 31 32 33 34 35 36 37 38 39 40 41 42 43 44 45 46 47 48 49 50
496
NZUS99 KSGF 070407
HRRSGF

HOURLY WEATHER
NATIONAL WEATHER SERVICE SPRINGFIELD MO
1000 PM CST SAT FEB 06 2016

......SGF CWA......

CITY           SKY/WX    TMP DP  RH WIND       PRES   REMARKS
SPRINGFIELD    CLEAR     36  27  69 SW7       30.19F WCI  30
JOPLIN         CLEAR     38  27  64 SW8       30.21F WCI  32
WEST PLAINS    CLEAR     43  15  32 S8        30.23S
ROLLA          CLEAR     32  25  75 SW7       30.17S WCI  26
OSAGE BEACH    CLEAR     39  28  65 S8        30.18F WCI  34

......SURROUNDING SGF CWA......

CITY           SKY/WX    TMP DP  RH WIND       PRES   REMARKS
CHANUTE        CLOUDY    35  27  72 S9        30.18F WCI  28
PARSONS        CLOUDY    38  28  67 SW6       30.21F WCI  33
COFFEYVILLE    CLOUDY    38  27  64 S6        30.21F WCI  33
EMPORIA        CLEAR     36  26  67 S15       30.11F WCI  27
GROVE OK       CLEAR     36  32  87 S3        30.25S
ROGERS AR      CLEAR     39  27  62 S7        30.24F WCI  34
SILOAM SPRINGS CLEAR     39  23  52 S6        30.25S WCI  35
HARRISON AR    CLEAR     42  22  44 SW5       30.23F
NEAR YELLVILLE CLEAR     41  18  38 SW8       30.23S

......KANSAS AND MISSOURI......

CITY           SKY/WX    TMP DP  RH WIND       PRES   REMARKS
KANSAS CTY INT PTCLDY    41  28  60 SW15      30.08F
DOWNTOWN KC    CLOUDY    43  27  53 SW9       30.10F
COLUMBIA       CLEAR     36  26  67 SW9       30.15F WCI  29
SEDALIA        PTCLDY    40  28  62 SW9       30.15F WCI  34
ST JOSEPH      PTCLDY    39  28  64 SW10      30.06F WCI  32
ST LOUIS       CLEAR     41  26  55 SW7       30.18S
SPIRIT OF STL  CLEAR     31  27  85 CALM      30.17F
KIRKSVILLE     MOCLDY    39  29  67 SW10      30.08F WCI  32
WICHITA          N/A     39  26  59 S13       30.13F WCI  31
TOPEKA         CLOUDY    41  26  55 S9        30.08F
OLATHE         PTCLDY    39  26  59 S10       30.11F WCI  32

......TENNESSEE......

CITY           SKY/WX    TMP DP  RH WIND       PRES   REMARKS
MEMPHIS        CLEAR     37  24  59 CALM      30.31S
NASHVILLE      CLEAR     36  24  62 S5        30.29S WCI  32

......ARKANSAS.......

CITY           SKY/WX    TMP DP  RH WIND       PRES   REMARKS
FAYETTEVILLE   CLEAR     33  25  72 S7        30.25S WCI  27
FT SMITH       CLEAR     40  24  53 CALM      30.28S
LITTLE ROCK    CLEAR     39  26  59 CALM      30.31F

......OKLAHOMA.......

CITY           SKY/WX    TMP DP  RH WIND       PRES   REMARKS
TULSA          CLOUDY    44  28  53 SW6       30.23F
PONCA CITY     CLOUDY    40  27  59 S6        30.21S
MCALESTER      CLOUDY    39  30  70 SW3       30.29F
OKLAHOMA CITY  CLEAR     33  26  75 S8        30.25F WCI  26

......IOWA............

CITY           SKY/WX    TMP DP  RH WIND       PRES   REMARKS
DES MOINES     CLOUDY    39  28  64 SW13      29.97F WCI  31
QUAD CITIES    PTCLDY    35  28  75 S7        30.06F WCI  29

......ILLINOIS........

CITY           SKY/WX    TMP DP  RH WIND       PRES   REMARKS
QUINCY         PTCLDY    35  25  66 SW9       30.11F WCI  28
CHICAGO        PTCLDY    33  28  81 S8        30.07F WCI  26




USA.gov is the U.S. government's official web portal to all federal, state and local government web resources and services.